Miscellaneous Local Product
Issued by NWS Hastings, NE

Home | Current Version | Previous Version | Text Only | Print | Product List | Glossary Off
Versions: 1 2 3 4 5 6 7 8 9 10 11 12 13 14 15 16 17 18 19 20 21 22 23 24 25 26 27 28 29 30 31 32 33 34 35 36 37 38 39 40 41 42 43 44 45 46 47 48 49 50

000
AXUS43 KGID 230502
MISGRI

GID CWA HOURLY WEATHER ROUNDUP
NATIONAL WEATHER SERVICE HASTINGS NE
1200 AM CDT THU OCT 23 2014

NOTE: "FAIR" INDICATES FEW OR NO CLOUDS BELOW 12,000 FEET WITH NO
SIGNIFICANT WEATHER AND/OR OBSTRUCTIONS TO VISIBILITY.

...SOUTH CENTRAL NEBRASKA...

CITY           SKY/WX    TMP DP  RH WIND       PRES   REMARKS
GRAND ISLAND   CLOUDY    59  57  93 NW3       30.05S FOG
HASTINGS       FOG       56  54  93 NW3       30.05S VSB 1/4
KEARNEY        CLOUDY    50  48  93 CALM      30.07S VSB<1/4
ORD            FOG       42  41  96 CALM      30.05S VSB 1/4
YORK           MOCLDY    57  57 100 SW5       30.04S
AURORA         CLOUDY    59  59 100 CALM      30.05S FOG
LEXINGTON      FOG       46  45  96 CALM      30.07S VSB 1/2
HOLDREGE       FOG       49  48  96 CALM      30.06S VSB<1/4
HEBRON         MOCLDY    61  57  88 S3        30.05S

...NEBRASKA PANHANDLE...

CITY           SKY/WX    TMP DP  RH WIND       PRES   REMARKS
CHADRON        CLEAR     38  31  76 CALM      30.06R
ALLIANCE       CLEAR     35  27  72 CALM      30.08F
SCOTTSBLUFF    CLEAR     42  29  59 E3        30.10S
SIDNEY         CLOUDY    48  38  68 SW8       30.12S

...WESTERN AND NORTH CENTRAL NEBRASKA...

CITY           SKY/WX    TMP DP  RH WIND       PRES   REMARKS
VALENTINE      CLEAR     43  38  82 SW3       30.05S
AINSWORTH      CLEAR     41  38  91 S5        30.05S
ONEILL         FOG       43  43 100 CALM      30.05S VSB 1/2
BROKEN BOW     FOG       45  43  93 CALM      30.06F VSB 3/4
IMPERIAL       CLEAR     47  33  58 CALM      30.09S
NORTH PLATTE   PTCLDY    44  43  96 E3        30.07F FOG
MCCOOK         CLEAR     48  45  89 CALM      30.07S

...EASTERN NEBRASKA...

CITY           SKY/WX    TMP DP  RH WIND       PRES   REMARKS
NORFOLK        CLOUDY    56  54  93 CALM      30.03F
SO SIOUX CITY  LGT RAIN  60  59  96 CALM      30.02F FOG
TEKAMAH        CLOUDY    63  60  90 SE6       30.02S
COLUMBUS       CLOUDY    61  57  88 W5        30.05S
ALBION         FOG       49  48  94 CALM      30.05S VSB 1/4
OMAHA EPPLEY   CLOUDY    63  60  90 SE10      30.04F
OFFUTT AFB     LGT RAIN  62  62 100 SE8       30.04F
MILLARD        CLOUDY    63  60  90 S8        30.04F
LINCOLN        CLOUDY    62  58  86 S14       30.03F
NEBRASKA CITY  RAIN      61  61 100 SW10      30.06F
BEATRICE       CLOUDY    61  59  94 S8        30.06F
FALLS CITY     LGT RAIN  63  59  87 CALM      30.09R

...NORTHERN KANSAS...

CITY           SKY/WX    TMP DP  RH WIND       PRES   REMARKS
GOODLAND       PTCLDY    49  44  83 SE5       30.10F
HILL CITY      CLEAR     54  52  93 CALM      30.06F
NORTON         FOG       48  46  93 CALM      30.05R VSB 1/4
PHILLIPSBURG   CLEAR     57  57 100 CALM      30.05S
SMITH CENTER   CLEAR     54  52  94 S5        30.05F
BELOIT         CLOUDY    63  59  88 SE3       30.04S
HAYS           CLOUDY    59  54  82 S6        30.07R
RUSSELL        PTCLDY    59  56  89 S10       30.04S
CONCORDIA      CLOUDY    61  60  97 E3        30.06S
SALINA         CLOUDY    64  58  80 S8        30.06S
TOPEKA         CLOUDY    67  58  72 S10       30.08S



USA.gov is the U.S. government's official web portal to all federal, state and local government web resources and services.